Theta_e
292 293 294 294 293 293 293 293 293 293 294 294 294 294 294 295 295 295 295 294 294 294 293 293 293 293 292 291 291 291 291 290 290 289 289 288 288 288 288 287 287 287 287 287 287 287 287 287 287 287 288 288 288 288 288 288 288 288 288 288 288 287 287 287 286 284 282 284 286 284 284 285 283 284 283 283 283 283 282 283 283 283 283 284 284
291 292 293 293 293 293 293 293 293 292 292 292 292 293 293 294 294 294 293 294 294 293 293 293 293 292 292 291 291 291 291 290 290 289 288 287 287 287 287 286 286 286 286 285 286 285 286 285 286 286 287 286 287 286 287 286 286 286 286 286 285 285 286 285 285 285 281 281 282 284 283 284 282 284 282 282 282 283 282 282 283 283 283 283 284
290 291 291 291 291 292 292 292 292 292 291 291 291 291 292 292 293 293 293 293 293 293 292 292 292 292 292 291 291 291 291 290 290 289 288 287 287 286 286 286 285 285 285 285 285 285 284 284 284 285 286 284 285 285 286 285 285 284 284 284 284 284 284 285 285 284 282 280 282 281 281 281 281 282 282 282 282 282 281 282 282 283 283 283 283
289 289 289 289 290 290 290 290 290 290 290 291 290 291 291 291 292 292 292 292 292 292 292 291 291 291 290 290 290 290 290 290 289 288 288 287 287 286 286 285 285 285 285 285 285 284 284 283 284 284 284 283 283 284 284 284 283 283 283 283 283 283 283 283 284 285 283 279 279 280 281 280 280 282 282 281 280 280 280 282 282 282 282 283 283
289 289 288 288 289 289 289 290 289 290 290 290 290 291 291 291 291 291 292 291 291 291 291 291 290 290 289 289 289 289 289 289 289 288 288 287 287 286 286 285 285 285 285 285 285 284 284 283 283 283 283 282 283 283 283 282 283 283 282 282 282 282 281 282 282 283 283 281 280 280 281 280 281 281 280 279 279 280 280 280 281 281 282 283 283
289 288 288 287 288 288 288 289 289 289 289 289 290 290 291 290 290 290 291 291 291 291 290 290 289 289 289 288 289 289 289 289 288 288 287 287 286 286 285 285 285 284 284 284 284 284 284 283 283 283 282 281 282 282 282 282 282 282 282 282 282 282 281 281 281 281 281 281 280 277 278 278 278 278 279 279 279 279 280 280 281 281 281 281 283
288 288 288 287 287 287 287 288 288 288 289 289 290 290 290 290 290 289 290 290 290 290 289 288 289 288 288 288 288 288 288 288 288 288 287 287 286 285 285 285 285 285 284 283 283 284 284 284 283 283 283 283 283 282 282 281 281 281 282 281 281 281 281 280 280 280 279 279 279 278 277 277 278 277 278 279 279 280 279 279 280 282 282 281 282
287 288 288 287 287 287 287 287 288 288 288 289 289 289 289 289 289 290 290 289 289 289 289 289 289 288 288 288 288 288 288 288 288 288 287 287 286 286 285 285 285 285 284 284 284 284 283 283 283 284 284 284 284 283 282 281 281 280 281 281 281 280 280 280 280 279 278 278 278 277 277 277 277 278 280 279 278 278 279 279 279 281 281 282 281
287 287 287 286 287 287 287 287 288 288 288 288 288 288 288 289 289 289 289 289 289 288 288 288 288 288 287 288 287 288 287 287 288 288 287 287 286 286 286 285 285 285 285 284 284 284 284 284 283 284 284 284 284 284 283 283 281 280 281 281 280 280 280 280 279 279 279 278 278 278 276 276 277 276 277 277 278 278 280 280 279 280 280 280 281
286 287 286 286 287 287 287 286 286 287 287 286 286 287 287 287 288 288 288 288 289 289 288 288 287 287 287 287 287 287 287 288 287 288 288 286 286 286 286 286 286 285 285 284 284 284 284 284 284 283 283 283 283 284 285 285 284 283 281 281 281 280 280 279 279 278 278 278 277 277 276 276 276 277 277 278 280 280 280 279 278 279 279 278 279
286 286 286 286 287 287 286 286 286 286 286 286 286 286 286 286 287 287 287 288 288 288 288 287 287 286 286 286 286 286 286 287 287 289 290 289 287 286 285 285 286 285 285 284 284 284 284 284 284 283 283 283 283 284 285 285 285 284 284 283 283 281 280 279 278 278 278 277 278 277 276 276 277 279 279 280 280 280 279 279 279 278 277 277 277
285 285 285 286 286 286 286 285 285 285 285 285 285 285 285 285 285 285 286 286 287 287 287 287 287 287 287 286 286 286 286 287 288 289 290 289 288 286 286 285 285 285 285 284 284 284 284 283 283 284 283 283 283 283 284 284 284 284 284 283 283 284 284 281 279 278 278 277 277 277 277 277 278 278 278 279 278 279 279 279 279 277 277 276 277
285 284 285 285 285 285 286 285 285 284 284 285 285 285 285 285 285 285 285 286 286 286 287 287 287 287 287 286 286 286 286 287 289 289 289 290 289 288 286 285 285 285 285 285 284 284 284 283 283 282 283 283 283 282 281 282 284 284 283 283 283 283 284 283 283 281 280 279 278 278 278 278 277 278 279 279 280 277 278 278 278 277 277 277 277
284 284 284 284 284 285 285 284 284 284 284 284 284 284 284 284 285 285 285 285 285 285 286 286 286 286 286 286 286 286 286 287 288 289 289 289 289 289 286 285 285 285 284 284 284 284 284 283 283 282 282 282 282 281 281 281 281 282 282 281 281 281 283 283 283 281 280 280 280 278 279 280 278 279 280 281 278 277 278 277 277 276 276 277 279
284 283 283 284 284 284 284 284 283 283 283 284 284 284 284 284 284 284 284 284 284 284 285 285 285 285 285 286 286 286 286 287 288 288 289 289 289 289 287 285 285 285 284 284 284 283 283 283 283 282 281 281 281 281 281 281 280 280 280 280 280 280 280 281 281 280 279 279 280 280 280 280 280 281 280 280 280 280 280 278 278 278 278 279 279
283 283 283 283 283 283 283 283 283 282 282 283 283 283 283 283 283 284 284 284 284 285 285 285 285 285 285 285 285 285 286 287 287 287 288 289 289 287 286 285 285 284 284 284 283 283 283 282 282 281 281 280 281 283 282 280 280 279 278 279 279 279 280 281 282 282 280 280 280 280 280 280 281 281 281 280 280 279 279 279 279 277 275 274 273
283 282 282 282 282 283 283 282 282 282 282 282 282 282 282 283 283 284 283 283 283 283 283 284 284 284 284 284 283 284 285 286 286 286 287 288 287 286 286 285 285 284 284 283 282 282 281 281 281 281 280 280 282 283 283 282 279 278 278 278 278 278 278 280 282 282 282 281 282 282 282 282 283 283 283 282 280 280 278 276 274 275 273 272 272
282 282 282 282 282 282 282 282 281 281 281 280 280 281 282 282 282 283 282 282 282 282 283 283 284 284 283 283 283 283 283 284 285 286 286 286 287 286 286 285 285 285 284 284 282 281 281 282 282 281 280 279 282 284 284 282 279 278 278 277 277 277 278 280 280 280 282 282 282 282 282 283 283 283 283 282 282 281 277 274 275 275 272 273 272
281 281 281 282 282 281 282 281 281 280 279 279 280 280 280 280 281 282 282 282 282 282 282 282 282 283 283 283 283 282 282 283 284 285 285 286 286 285 285 285 285 284 284 284 283 281 281 281 282 281 280 280 283 284 284 282 279 278 278 277 276 276 277 279 278 278 279 279 279 280 281 282 281 281 281 282 282 281 278 277 277 274 272 272 272
281 281 281 281 281 281 281 280 280 279 278 279 279 279 279 279 280 281 281 281 281 281 281 281 281 281 282 282 281 282 281 282 283 284 284 285 285 285 285 284 284 284 284 283 282 281 280 280 281 283 283 282 283 284 284 284 280 279 279 277 277 276 279 279 279 279 279 278 279 279 279 280 280 280 279 280 280 280 277 277 275 273 272 271 271
279 279 280 279 279 279 279 279 278 278 278 278 278 278 278 278 279 280 279 279 279 279 279 280 280 280 281 282 282 282 281 281 282 283 284 285 285 285 284 284 284 284 284 283 282 280 279 279 280 282 283 282 283 283 284 284 283 279 279 277 278 278 280 277 279 280 279 278 278 278 278 279 278 277 276 277 278 277 276 276 275 274 272 270 270
277 277 277 277 277 277 277 277 277 277 277 277 276 276 277 278 278 278 278 277 276 276 277 278 279 279 280 281 281 281 282 281 281 282 283 284 284 285 284 284 285 284 283 283 282 281 279 279 279 280 283 283 283 283 284 284 284 280 279 281 281 281 278 277 278 278 278 278 277 277 276 274 274 274 274 274 274 274 274 274 274 273 273 272 271
275 275 275 275 275 275 275 275 275 275 275 275 275 275 276 276 276 275 275 274 275 275 276 277 278 278 279 280 281 281 281 281 281 281 282 283 284 284 285 284 285 285 284 282 282 280 280 279 279 280 282 283 283 283 283 284 284 281 282 282 282 282 279 276 277 276 276 276 276 274 274 273 272 272 272 272 273 273 273 273 273 273 272 273 273
273 272 272 272 272 272 273 273 274 274 274 274 274 273 273 273 273 273 273 273 273 274 275 277 277 277 278 278 280 281 281 281 281 281 281 282 283 284 285 285 285 284 284 283 283 281 280 279 279 280 282 282 283 283 283 283 283 284 283 282 282 281 277 276 275 275 275 274 273 273 272 272 272 271 271 272 272 272 272 272 272 272 272 272 272
268 268 268 268 269 270 270 271 271 272 272 272 271 272 271 271 271 272 272 272 272 272 273 275 276 277 277 277 279 280 281 281 280 280 281 281 282 283 284 284 285 285 284 284 283 282 281 281 280 281 281 282 283 283 283 283 284 284 283 282 281 278 276 275 274 274 273 273 272 272 272 272 272 273 273 272 272 272 271 270 271 271 271 271 271
264 264 264 265 265 266 266 267 268 269 269 270 270 270 270 270 270 270 270 270 271 271 272 273 275 276 276 277 278 279 280 280 280 279 279 280 280 282 283 283 283 284 284 284 284 284 282 281 281 281 281 281 281 280 280 281 283 283 282 281 279 277 275 275 274 273 272 272 272 271 271 271 271 272 272 272 270 269 269 268 268 267 268 267 267
261 261 261 262 263 263 263 264 265 266 266 267 268 268 269 269 268 269 269 269 269 270 271 273 274 275 276 276 277 278 279 279 279 279 278 278 278 279 280 281 282 283 282 283 284 283 282 281 280 280 280 281 281 281 281 281 281 282 281 279 279 277 275 275 274 272 272 272 272 271 270 270 270 269 269 269 268 268 269 267 267 266 267 266 266
259 259 260 260 261 261 261 263 263 263 264 265 265 266 267 268 267 268 268 268 268 269 270 271 273 274 276 276 277 277 278 278 279 279 278 278 278 278 279 279 279 280 281 282 283 282 280 280 280 279 279 278 279 279 279 280 280 280 279 279 278 276 275 276 275 273 273 273 272 270 268 268 267 268 268 267 267 267 268 266 266 265 266 266 265
259 259 259 259 259 260 260 261 261 262 262 263 264 265 265 265 266 267 268 269 269 269 269 271 273 275 276 276 276 276 277 277 279 281 279 279 278 277 277 278 279 279 281 283 281 279 278 278 277 277 277 277 277 278 278 278 279 278 278 278 276 274 274 273 272 271 272 271 268 267 266 266 266 266 266 265 265 265 267 265 266 265 266 266 264
258 258 259 259 259 259 260 260 260 260 260 260 261 262 266 268 268 266 266 270 272 274 274 271 272 274 274 275 277 276 276 278 281 282 282 282 281 281 280 280 281 280 281 283 281 278 276 276 276 276 276 276 276 276 277 277 277 276 277 276 274 273 273 272 272 272 271 269 268 266 265 265 265 264 264 264 264 264 266 266 264 265 264 264 264
258 258 258 258 259 259 259 259 259 260 260 260 260 260 260 262 268 269 270 270 271 272 273 275 276 276 274 273 275 278 280 281 282 282 282 282 282 282 282 281 282 282 282 281 279 277 275 274 275 275 275 276 276 276 277 277 276 274 274 274 273 272 272 271 271 270 269 268 267 266 265 265 264 264 263 264 264 264 264 265 265 265 265 265 265
257 258 258 258 258 259 259 259 259 259 259 260 259 259 259 259 260 266 268 269 270 271 272 273 274 275 276 275 274 274 277 279 280 282 282 282 282 282 282 282 283 283 283 283 277 275 275 274 274 274 275 275 276 276 276 276 275 273 272 270 270 271 271 270 270 268 268 267 266 265 265 264 264 264 263 264 264 264 264 264 264 264 264 265 265
257 257 258 258 258 259 258 258 259 259 259 259 259 259 259 259 258 259 262 267 269 270 271 272 273 274 275 276 277 277 277 278 279 281 282 282 283 282 283 283 283 283 283 281 277 275 275 275 274 275 275 275 275 275 275 275 273 272 272 270 270 270 270 270 269 268 267 266 265 264 264 264 264 263 263 263 263 263 264 264 265 265 265 264 265
257 257 257 258 258 258 258 258 259 259 259 259 259 259 259 259 259 259 260 261 262 266 269 271 272 273 274 275 275 276 277 278 279 280 281 282 283 283 282 281 283 284 282 279 278 276 275 274 274 275 275 275 275 275 274 274 273 272 270 270 270 269 269 268 267 267 266 266 265 264 264 264 263 262 262 263 264 264 264 264 264 264 264 264 264
257 258 258 258 258 258 259 259 259 259 259 259 259 259 259 260 260 260 259 259 260 261 262 265 269 272 271 272 274 276 276 277 278 279 281 282 283 283 283 280 278 279 280 280 278 276 275 274 274 274 275 274 274 274 274 273 273 270 269 269 268 267 265 264 265 265 264 264 264 264 263 263 263 263 263 263 263 263 263 264 264 264 264 264 265
257 257 258 258 258 259 259 259 259 259 259 259 259 260 260 260 260 260 261 261 261 261 261 262 263 267 270 271 272 274 276 277 278 279 280 282 283 283 279 278 278 278 278 279 278 276 276 275 275 274 275 275 275 274 274 273 270 269 269 269 266 265 264 264 264 264 264 264 263 263 263 263 263 263 263 263 263 263 263 263 264 264 264 264 265
257 258 258 258 259 259 259 259 259 259 260 260 260 260 260 260 261 260 260 260 261 262 262 263 264 265 268 268 269 272 274 276 278 278 279 281 282 281 279 278 278 278 278 278 278 277 276 276 276 275 275 274 274 273 273 272 270 269 269 267 265 265 264 264 264 263 263 263 263 263 262 262 262 263 263 262 263 263 263 264 264 264 264 264 265
257 258 258 258 259 259 259 259 259 260 260 260 260 260 260 260 260 261 261 261 262 262 262 263 264 264 265 267 270 270 271 276 277 277 278 279 279 279 279 278 278 277 277 278 279 278 276 276 276 275 274 274 273 273 272 270 269 269 268 266 266 265 266 265 264 263 263 262 262 262 262 262 262 262 263 262 263 263 263 263 264 264 264 264 265
258 259 259 260 261 260 260 260 260 260 260 260 260 260 260 260 260 260 261 261 261 261 262 262 263 264 265 267 269 271 273 273 273 273 274 276 278 279 279 278 278 278 278 278 278 277 276 276 275 274 273 273 272 272 271 270 269 267 266 266 266 265 264 262 262 262 262 262 262 262 262 262 262 262 262 262 263 263 263 264 264 264 264 264 265
258 259 259 260 260 260 260 260 260 259 260 259 259 260 260 260 260 260 261 261 261 262 263 263 264 264 266 266 267 270 270 271 272 273 273 275 277 278 278 278 278 278 277 278 278 277 276 276 274 272 272 272 272 271 270 269 268 266 265 264 264 263 263 262 261 261 262 262 262 262 262 262 262 262 262 263 263 263 263 263 264 264 265 265 265
258 259 259 260 260 260 260 260 260 260 260 260 260 260 260 260 261 261 261 262 262 262 263 264 265 266 268 269 272 272 271 271 272 273 273 274 276 277 277 278 278 278 277 277 277 277 276 275 273 271 271 271 270 269 268 267 266 265 264 265 264 263 262 262 261 261 262 262 262 262 261 261 262 262 261 262 264 264 264 265 265 265 265 265 265
258 258 259 259 260 260 260 260 260 260 260 260 260 260 260 260 260 261 261 262 262 263 263 264 266 267 269 271 272 273 272 272 273 273 273 274 275 276 277 278 278 278 278 278 277 275 274 272 271 270 269 269 268 267 266 265 264 264 265 264 263 263 262 261 261 261 261 261 261 261 261 261 261 262 263 264 263 264 264 265 265 265 265 265 265
258 259 259 260 260 260 260 260 260 260 260 260 260 260 260 260 260 261 261 262 263 263 263 263 264 266 268 271 272 273 272 272 271 273 274 274 275 276 276 277 278 277 276 276 275 273 272 270 269 268 268 267 267 266 265 265 264 264 265 264 262 262 261 261 261 260 261 261 260 261 261 262 262 262 263 264 264 264 264 264 264 264 264 264 264
259 260 260 260 261 261 261 261 260 260 260 260 260 260 260 260 260 260 261 261 261 262 262 263 264 265 267 269 271 271 271 272 273 273 274 274 275 274 271 271 272 272 272 271 270 271 270 268 267 268 267 267 267 266 265 266 265 265 265 263 262 261 260 260 260 260 260 260 260 260 261 262 262 263 263 264 264 263 263 263 264 264 264 264 264
259 260 260 260 260 261 261 262 261 261 260 260 260 260 260 260 260 260 260 261 261 262 263 263 264 265 266 268 270 271 271 272 272 273 273 270 268 268 269 269 269 269 268 268 268 268 267 267 267 266 265 266 266 265 266 266 266 265 265 264 261 260 260 260 260 261 261 261 261 261 261 262 262 262 263 263 263 263 263 264 264 264 264 264 264
259 259 260 260 260 261 261 261 261 261 260 260 260 260 260 260 260 260 261 261 262 263 263 264 265 266 268 269 271 271 271 271 268 267 266 266 266 266 266 266 267 267 267 267 267 267 266 266 265 264 263 262 263 264 264 264 263 263 263 262 262 262 261 261 261 261 261 261 261 261 261 261 261 262 262 263 263 264 264 264 264 264 264 264 264
259 259 259 260 260 260 261 261 261 261 261 261 260 260 261 261 261 262 263 263 263 264 265 266 267 268 270 270 269 267 266 266 266 265 265 265 265 265 265 265 265 266 266 267 266 265 264 265 263 262 262 262 262 261 261 261 261 261 262 262 261 261 260 260 260 260 261 261 262 262 261 261 261 262 262 262 263 263 263 263 264 264 264 264 264
258 259 259 259 259 259 260 260 261 261 261 261 261 261 262 262 262 263 263 264 265 266 267 268 268 267 266 265 265 265 264 264 264 263 263 263 263 263 263 263 263 263 263 263 263 263 263 262 261 261 261 260 259 259 259 259 259 259 259 259 259 259 259 259 259 260 260 260 260 261 261 261 262 262 263 262 262 263 263 264 264 264 264 264 264
257 258 258 258 258 259 259 259 259 260 260 261 262 262 263 263 263 264 265 265 266 265 265 265 265 264 264 263 263 263 262 261 261 261 261 261 261 262 261 261 261 261 260 260 260 260 259 260 259 259 258 258 258 258 257 257 257 257 257 257 258 259 259 259 258 259 259 259 260 260 260 261 261 261 262 262 262 263 264 264 264 264 264 264 264
257 257 257 257 258 258 259 259 259 259 260 260 260 261 262 262 262 262 262 262 263 262 262 262 262 262 262 262 261 261 261 261 260 260 260 260 260 260 260 260 259 258 259 258 258 258 257 257 258 257 257 257 257 256 256 256 256 256 256 257 259 259 258 258 258 258 258 258 259 260 260 261 260 261 261 262 262 263 264 264 264 264 264 263 263
256 256 256 257 257 257 257 257 258 258 258 259 259 259 260 260 260 261 261 261 261 261 261 261 261 261 261 261 261 260 259 259 258 259 259 259 260 260 259 258 257 257 257 257 257 257 257 257 257 256 256 256 256 256 256 256 256 256 257 259 259 259 258 258 257 258 258 258 259 260 260 260 260 261 262 263 264 264 264 264 263 263 264 264 264
Wind_Speed
11 10 10 10 13 14 13 12 12 10 10 10 10 10 10 10 9 9 8 8 8 9 10 10 11 11 12 12 13 13 14 14 12 13 14 14 14 14 14 14 16 14 12 13 12 12 14 14 14 13 10 11 10 9 9 8 7 7 6 6 7 6 7 8 9 5 3 1 5 7 8 9 9 10 9 8 7 6 7 7 6 6 5 5 6
10 10 9 9 11 10 11 10 11 11 11 10 10 10 10 10 10 8 9 10 8 9 10 9 10 12 12 13 13 13 13 14 13 13 14 15 15 11 13 14 16 16 14 14 13 11 12 13 13 12 11 12 10 11 10 10 10 9 8 8 8 8 7 7 8 6 7 5 5 6 7 9 8 9 9 8 7 6 7 6 5 5 5 5 6
9 8 7 8 9 8 7 7 9 10 10 9 10 11 10 11 10 10 10 9 8 9 9 10 11 12 12 12 12 13 14 13 13 14 15 16 16 14 13 15 16 16 16 16 14 12 11 12 12 10 6 10 10 9 8 9 8 9 10 8 8 7 7 6 7 6 9 8 7 8 8 8 8 8 8 6 6 6 6 6 5 5 5 6 6
6 6 7 8 7 7 8 9 11 11 12 10 12 11 11 10 10 10 10 9 10 8 8 10 10 11 12 12 12 12 13 13 13 14 16 16 16 16 14 15 15 15 16 15 14 13 15 14 12 11 10 11 10 9 9 9 9 9 8 7 7 6 6 6 4 5 6 9 9 9 8 8 8 6 7 6 7 6 6 6 6 6 6 7 7
11 11 11 13 14 14 14 13 13 13 12 10 11 12 11 10 10 10 10 10 10 10 8 8 10 11 10 12 12 13 13 13 14 14 14 14 14 13 13 14 15 15 15 14 16 14 15 14 13 10 11 11 11 11 11 14 10 8 9 8 8 6 5 6 6 4 6 8 8 7 7 7 7 7 7 8 7 7 7 7 7 7 8 8 7
10 10 10 11 11 12 12 12 13 13 12 11 11 10 10 10 11 10 10 11 10 9 10 9 9 11 11 11 12 12 12 13 14 14 14 13 13 13 12 13 14 13 13 13 12 11 13 13 10 12 13 12 12 11 11 14 11 11 12 10 9 7 8 7 6 6 5 5 8 8 7 8 7 7 8 7 7 6 6 7 7 7 7 8 8
10 9 9 9 9 10 10 11 10 10 10 10 10 10 10 10 10 10 9 10 11 10 8 9 8 9 11 10 11 12 12 13 13 14 14 13 13 14 13 14 14 13 13 12 9 10 13 13 14 15 17 17 14 14 12 12 10 12 11 11 9 10 9 9 8 8 7 6 6 7 7 7 7 7 8 8 6 5 5 5 6 7 7 7 6
9 9 10 9 9 9 9 9 9 9 9 9 9 9 9 9 10 10 10 10 10 10 11 10 9 9 10 10 10 10 11 12 12 12 12 13 12 14 14 14 15 14 14 13 13 13 14 13 14 16 18 16 14 10 10 10 9 10 10 9 10 11 11 9 9 8 7 7 5 7 7 7 7 4 6 7 6 6 6 5 5 6 6 6 6
8 9 9 9 9 9 9 8 8 10 10 10 10 11 11 9 9 9 9 9 8 9 9 9 10 10 8 10 10 10 10 11 10 10 12 14 13 14 15 15 15 15 14 16 16 16 15 14 15 15 18 21 23 19 17 20 15 10 10 11 12 11 9 8 8 8 8 7 6 5 6 7 7 8 8 8 9 7 7 6 5 5 4 5 5
8 8 8 8 7 8 8 8 9 9 10 10 11 11 11 10 9 9 9 8 9 8 9 9 9 10 10 9 10 8 9 9 12 17 16 11 11 11 12 14 15 14 14 15 16 17 17 15 14 23 23 23 24 24 16 12 20 16 16 11 12 9 9 9 9 10 9 9 9 8 8 8 9 10 10 9 7 6 7 7 6 4 3 5 6
9 8 9 8 8 9 8 8 8 10 10 10 10 11 11 11 11 10 10 9 9 8 8 8 8 8 10 10 11 11 11 10 15 16 16 20 15 10 11 12 14 14 14 14 15 15 15 16 14 19 21 22 22 22 14 19 14 11 8 11 13 15 13 9 9 11 10 9 8 7 8 8 10 9 9 9 9 9 8 7 5 4 4 3 3
11 12 11 10 10 9 9 10 10 11 10 10 9 8 9 9 9 9 9 9 9 8 8 8 8 8 8 10 11 11 11 13 17 14 17 19 20 13 10 11 11 13 14 14 13 13 15 14 12 10 13 16 13 13 17 19 19 18 12 10 10 14 20 19 15 9 8 8 8 9 8 9 9 10 9 10 10 10 8 8 7 6 6 5 5
12 12 12 12 12 11 10 10 10 9 9 10 10 9 8 9 9 8 9 9 9 8 9 9 8 8 8 10 10 11 11 14 16 16 16 19 21 20 10 12 12 15 15 15 15 15 13 13 11 10 11 21 16 12 11 13 18 19 16 12 12 17 18 15 8 1 12 11 11 10 12 10 10 9 10 10 10 10 10 8 8 7 6 5 6
10 11 11 12 12 12 11 10 9 10 9 9 10 10 10 10 10 9 8 8 8 9 8 8 8 8 8 9 10 10 10 12 15 15 17 18 20 19 15 15 14 14 15 15 14 16 16 13 11 10 10 13 14 15 14 11 12 13 12 10 11 14 17 18 19 11 5 9 10 11 9 8 8 9 10 10 12 10 10 9 8 7 7 7 6
11 11 11 11 11 10 11 9 10 10 10 10 10 9 10 11 10 10 9 9 9 8 9 9 8 7 8 8 9 10 9 12 14 17 18 20 21 19 15 15 13 12 13 14 14 15 15 14 12 11 11 13 11 15 13 13 15 15 15 13 12 13 14 15 14 12 10 8 8 6 7 8 7 9 10 9 8 7 8 8 8 6 4 6 7
11 10 11 11 11 12 10 10 10 10 10 11 10 10 10 10 11 10 10 10 9 9 8 7 8 9 7 8 9 10 10 13 16 18 19 20 22 14 13 14 15 15 12 10 11 10 10 10 9 9 10 12 15 21 18 15 14 17 17 15 10 11 13 13 15 13 11 11 8 8 7 9 10 10 11 10 9 8 7 5 4 5 5 4 7
11 11 11 11 11 11 12 10 10 10 11 11 11 11 11 11 11 9 10 10 10 10 10 9 7 8 9 8 9 10 9 11 14 17 18 21 17 11 12 11 12 14 12 10 7 8 8 10 9 8 9 11 17 24 24 21 15 17 17 16 10 9 11 11 17 18 15 14 12 13 14 16 16 16 17 17 12 10 8 8 7 8 7 7 9
12 12 12 10 12 12 10 10 10 11 11 12 13 12 11 11 11 10 10 10 11 10 10 10 9 8 8 9 9 9 9 10 13 15 17 19 17 11 10 11 10 12 13 11 8 9 13 22 15 12 12 12 19 25 25 21 16 16 16 15 15 12 11 11 10 11 17 16 16 16 17 17 18 18 18 18 18 14 11 11 10 9 9 9 7
13 14 13 13 12 11 10 9 9 11 13 13 12 13 13 12 12 11 10 11 11 10 9 10 10 9 9 9 11 11 10 10 13 15 17 18 15 11 10 9 11 12 13 11 8 8 9 15 22 18 12 11 21 25 27 22 17 16 16 16 13 13 14 14 15 13 13 13 12 13 13 15 14 13 13 19 19 15 11 8 9 10 9 7 6
15 14 14 13 11 10 9 11 12 12 13 14 12 12 12 13 12 12 11 11 11 11 11 10 10 10 10 12 11 8 9 10 10 15 16 17 19 12 10 11 14 13 10 8 7 8 10 9 14 23 20 19 23 26 27 28 19 15 14 12 12 14 12 12 12 12 13 12 12 13 14 15 14 14 12 13 13 12 10 11 8 6 6 6 6
15 15 14 13 12 12 11 10 13 13 12 12 12 13 12 13 13 12 12 12 12 12 13 12 11 11 11 9 10 11 11 10 11 15 16 18 19 18 11 13 12 13 13 10 8 8 8 10 10 18 24 22 24 27 28 30 25 16 17 17 18 12 13 12 17 17 12 13 14 14 13 13 9 7 7 7 8 9 10 8 7 7 6 7 6
15 14 14 15 15 14 14 14 13 13 13 12 12 13 13 13 13 13 12 13 15 16 15 12 12 12 12 9 9 9 9 12 12 13 17 19 19 21 14 13 13 10 11 12 8 8 9 9 9 16 26 26 26 28 30 29 29 17 18 18 16 21 16 12 11 11 13 14 14 13 11 7 7 8 8 8 8 8 7 6 6 6 7 7 7
15 15 16 16 16 16 16 17 16 13 14 14 15 15 15 14 14 13 14 15 16 17 17 14 12 12 12 11 10 8 9 9 16 14 17 20 21 21 23 18 19 14 10 13 12 8 6 8 9 16 24 26 26 28 29 31 27 18 24 23 23 25 18 7 10 10 9 13 13 12 11 11 11 11 9 7 7 7 6 5 6 6 7 6 6
15 16 17 17 18 17 17 17 17 15 15 15 14 15 15 14 13 13 14 14 14 15 14 14 13 13 13 12 11 10 8 8 12 19 17 20 21 22 23 24 23 15 13 10 8 7 8 7 8 17 22 25 26 26 27 27 21 28 25 26 25 23 13 11 11 11 12 9 11 10 8 7 7 7 7 7 7 8 7 6 6 7 7 6 6
17 17 19 19 18 17 17 17 17 16 16 15 16 15 16 15 14 13 13 13 14 15 16 15 14 13 13 13 12 11 9 7 7 12 19 19 22 22 23 24 23 24 17 13 11 7 9 12 16 20 22 24 26 26 24 28 31 27 29 29 26 13 13 11 11 11 11 13 12 9 10 10 8 8 8 8 8 7 6 6 6 6 5 4 2
18 19 19 18 18 20 20 20 19 19 19 16 16 16 16 15 15 15 13 14 15 15 16 15 15 14 13 13 13 12 10 7 7 8 9 15 16 21 24 24 23 24 22 16 16 17 14 17 19 21 21 21 17 15 14 15 26 30 29 29 16 11 10 11 11 12 12 13 11 11 7 7 7 8 9 8 7 7 7 7 7 6 5 3 3
19 19 19 17 17 18 19 17 17 17 16 16 16 16 16 16 16 17 16 16 15 16 16 16 15 15 14 13 13 12 10 9 8 6 7 9 10 11 13 14 20 20 15 13 14 13 14 14 12 16 15 22 22 19 16 16 18 20 16 19 14 10 11 11 10 11 13 13 11 7 6 7 8 8 7 7 6 6 6 6 6 6 6 5 4
18 19 19 17 17 16 17 21 22 17 17 15 16 16 16 15 16 17 16 15 14 15 15 16 16 15 14 13 13 12 12 11 9 8 8 10 9 8 8 9 9 9 11 12 11 10 10 11 14 12 13 13 15 11 11 12 13 13 12 17 10 8 12 14 13 5 3 4 6 7 7 7 7 7 7 7 6 6 6 6 6 6 6 6 5
19 19 18 17 17 15 15 16 15 16 16 16 16 16 16 16 17 18 18 15 16 16 15 17 17 16 14 14 14 13 13 13 13 12 8 8 10 8 9 10 9 10 13 15 8 7 8 8 9 10 10 11 12 15 14 13 12 12 14 12 8 11 11 14 13 8 9 10 11 11 8 8 7 7 7 6 6 6 6 6 5 6 5 6 5
19 19 16 16 17 15 15 15 15 16 16 17 17 18 22 27 23 19 18 23 30 32 28 21 19 17 17 16 15 16 15 14 16 16 17 20 21 22 19 18 16 13 14 21 13 10 9 9 12 13 13 14 15 14 14 14 12 11 14 11 12 13 13 12 11 11 10 10 10 9 8 8 8 8 7 7 6 6 6 8 6 6 6 6 6
17 17 17 16 16 18 17 16 16 15 16 16 16 18 17 17 25 32 33 32 32 34 35 37 38 36 26 22 23 32 32 33 32 30 26 22 22 24 24 23 24 23 21 14 13 13 12 11 11 13 13 14 14 15 12 12 12 10 11 11 11 13 13 12 11 9 10 10 11 8 8 8 9 8 8 7 7 7 6 7 6 7 7 6 6
18 18 16 17 18 18 16 18 17 16 16 16 16 17 17 18 18 21 27 29 30 32 33 35 37 37 38 35 28 21 28 34 35 33 30 28 26 25 25 27 26 25 24 23 12 11 13 13 11 10 12 13 15 12 11 12 12 12 12 11 10 11 12 12 11 12 11 11 9 9 9 8 8 8 7 7 7 7 6 7 7 7 6 5 6
19 19 18 18 18 18 18 17 17 16 17 17 16 16 16 17 18 17 15 22 27 28 29 32 33 34 35 35 36 33 32 33 34 32 30 29 29 28 27 27 26 26 26 17 14 12 10 10 12 11 11 13 11 9 7 11 10 12 11 12 12 11 11 9 10 11 8 8 8 8 7 8 7 7 7 7 7 6 6 6 6 5 5 5 6
18 17 16 17 18 18 16 16 16 17 16 16 16 16 16 17 17 18 17 15 15 19 24 29 31 32 33 34 34 34 35 35 34 35 34 32 29 28 26 20 24 27 24 14 15 14 14 12 12 11 13 10 12 12 11 13 11 11 10 10 10 10 10 11 11 10 8 10 7 7 8 7 7 8 7 6 6 6 6 6 6 6 6 6 5
16 19 27 23 16 16 16 16 16 16 16 16 16 16 16 17 17 17 17 17 17 17 14 13 17 22 20 20 24 29 30 33 35 34 33 32 31 30 28 18 16 16 18 15 11 13 13 13 13 11 11 9 13 12 12 9 12 11 11 12 12 11 11 9 7 9 8 7 7 8 7 8 8 7 7 7 7 6 5 5 5 5 5 5 5
17 16 15 17 16 15 15 16 16 16 16 16 16 16 16 16 17 16 16 17 17 17 16 15 14 19 32 34 36 32 29 29 28 30 30 31 30 29 18 15 12 15 14 15 13 13 11 12 13 11 11 11 11 11 11 11 8 9 10 10 11 12 11 9 9 9 9 8 7 8 8 6 7 7 6 6 6 6 5 5 4 5 5 5 5
16 15 15 15 15 15 16 16 16 17 17 18 17 16 16 16 16 16 16 15 16 15 15 15 14 15 17 16 21 28 33 31 28 27 28 27 30 22 11 14 15 13 13 15 12 11 11 11 13 12 12 11 11 10 10 10 9 9 8 7 9 11 8 10 10 9 9 8 8 8 9 8 8 7 7 6 6 6 4 5 5 5 6 6 6
16 16 15 15 14 16 15 15 15 19 17 15 15 15 15 14 15 15 15 14 15 15 15 15 15 15 15 14 16 14 17 22 22 21 23 25 21 13 11 14 12 13 14 12 14 11 10 7 11 12 12 12 11 10 9 10 9 8 9 8 9 10 17 15 14 10 9 8 8 7 7 8 8 8 7 7 6 6 6 5 5 5 5 6 6
15 20 24 26 22 17 15 16 15 15 14 15 15 15 14 14 14 14 14 15 15 15 15 14 14 14 14 14 12 14 16 13 10 10 11 12 13 11 11 13 14 11 12 14 11 10 7 10 10 10 10 11 11 11 10 10 10 7 7 9 11 11 12 8 9 9 9 8 8 7 7 6 6 6 7 7 7 7 6 6 6 6 5 5 5
15 14 16 23 17 17 15 15 14 14 14 14 13 13 14 13 13 14 13 13 14 14 13 14 13 12 12 12 13 13 12 11 8 8 8 11 11 8 9 11 12 11 11 10 8 8 9 10 9 9 10 11 11 10 10 10 10 11 9 8 10 10 9 9 9 10 9 9 8 7 7 7 6 6 6 5 6 6 6 6 6 6 5 5 5
14 15 16 17 19 17 15 15 14 14 13 13 13 13 14 14 14 14 13 14 14 14 14 14 14 13 13 15 21 21 14 12 11 9 8 9 8 6 8 9 8 7 7 8 7 7 8 8 8 8 9 9 10 10 10 9 10 10 10 12 9 9 9 8 10 8 10 9 8 8 7 6 7 7 8 6 6 6 5 5 5 5 5 5 5
14 15 15 15 16 14 13 13 14 15 14 14 13 13 13 13 13 12 14 14 14 15 14 13 13 13 17 26 25 26 16 10 7 7 7 9 8 7 7 7 7 6 7 7 7 7 7 7 8 8 9 10 10 9 10 10 10 9 12 8 8 9 8 9 8 8 9 9 8 8 7 6 6 5 5 7 6 6 5 5 5 5 5 5 5
15 14 14 14 14 13 12 13 12 11 11 11 11 12 13 13 12 12 12 12 12 12 11 13 13 14 14 19 20 21 12 10 9 8 9 9 8 7 6 5 4 3 3 3 4 6 7 8 8 8 9 10 12 13 12 12 12 11 12 13 9 9 8 7 7 7 8 9 9 8 9 9 7 6 6 6 6 5 5 5 5 4 5 5 5
14 14 14 14 14 14 13 11 10 10 10 11 12 12 12 11 11 11 11 12 12 12 13 13 13 13 13 15 14 11 10 9 9 8 8 9 7 1 3 5 6 7 6 6 6 7 8 8 8 8 7 8 9 11 12 13 10 12 14 14 11 9 8 8 8 8 8 9 9 9 9 8 8 7 6 6 6 5 4 5 5 5 5 5 5
13 13 13 13 13 12 12 10 9 9 10 10 9 9 10 10 10 11 11 11 12 11 11 11 12 12 13 13 12 10 7 8 7 6 5 3 6 5 4 6 6 8 7 7 7 8 9 9 9 9 11 9 8 9 8 8 9 12 14 18 13 11 10 9 8 7 7 9 9 9 8 8 7 6 5 6 5 5 5 5 6 5 5 5 5
12 12 13 13 13 12 11 11 10 8 8 8 9 9 9 9 9 10 11 11 11 11 11 11 11 11 12 11 10 7 6 4 3 3 3 4 6 6 5 5 6 7 6 6 8 8 8 10 10 9 9 9 12 10 8 9 8 8 10 6 6 7 7 7 7 7 7 8 8 8 8 7 6 5 6 5 5 5 5 5 5 4 5 5 6
12 12 12 12 12 12 12 11 10 9 8 8 8 9 9 9 9 9 10 11 11 12 12 11 11 11 8 5 3 3 2 3 3 4 5 6 6 7 7 6 6 7 7 7 8 8 9 8 7 10 14 12 12 12 9 8 7 6 5 5 7 8 7 6 6 6 6 5 6 7 7 7 6 5 6 5 4 5 5 5 5 5 6 6 6
12 11 11 11 11 11 11 11 11 11 9 9 9 9 9 9 9 9 9 9 10 10 10 9 6 4 3 4 4 4 4 4 4 4 5 5 6 6 6 7 7 6 7 7 6 7 6 7 9 13 13 14 11 9 8 8 7 7 5 4 5 7 8 9 6 6 6 6 5 6 6 6 5 5 5 6 5 5 5 5 5 5 6 6 6
11 11 11 11 11 11 11 11 11 10 10 10 9 9 8 8 8 8 7 7 6 6 6 5 5 5 4 5 4 4 5 5 5 5 5 5 6 6 6 7 7 7 6 6 6 8 9 11 12 8 9 8 8 9 8 8 7 7 6 6 9 15 14 12 8 6 8 6 6 6 5 5 5 4 5 5 5 5 5 5 5 6 6 5 5
11 11 11 11 11 11 10 10 10 10 10 10 9 9 9 8 8 8 7 7 6 6 6 7 6 6 6 5 5 5 5 5 5 5 5 5 6 6 7 7 8 9 9 10 10 9 9 9 11 9 8 8 8 7 7 7 7 6 6 8 14 15 14 14 13 13 8 5 6 5 5 5 4 4 4 4 5 5 6 6 6 6 5 5 5
11 11 11 10 10 10 10 10 10 10 10 10 10 9 9 9 8 8 8 8 7 7 7 7 7 7 7 7 6 6 6 6 6 6 6 6 6 7 7 9 9 10 11 11 10 8 8 8 7 7 7 7 7 7 7 6 6 6 9 14 14 14 14 12 8 10 11 7 5 5 5 6 5 5 5 5 5 6 6 7 5 4 4 4 4
Wind_Direction
11 12 8 8 8 7 3 359 348 337 326 311 303 294 286 275 266 260 258 244 231 223 220 215 213 213 214 213 214 215 212 210 206 206 210 213 215 215 210 204 208 214 210 209 202 203 207 208 205 201 182 187 197 193 195 191 186 197 194 193 198 192 189 206 212 146 140 132 162 161 165 168 180 188 185 189 191 195 206 226 227 230 234 245 246
5 0 1 2 5 1 360 358 355 348 340 332 318 309 296 289 280 269 260 256 237 231 227 219 216 216 216 216 215 216 216 211 208 205 212 214 214 209 209 205 204 210 206 211 198 196 204 208 207 193 183 195 192 192 191 187 188 191 193 192 197 189 193 188 206 165 159 164 175 164 162 183 188 187 194 191 194 194 202 210 220 228 238 245 247
354 353 353 359 358 357 356 358 356 356 353 345 336 324 313 302 292 280 272 266 250 236 233 226 220 219 220 220 217 218 217 214 210 210 214 216 215 212 205 207 207 207 207 210 200 191 195 205 204 181 157 190 198 195 184 187 185 192 191 189 194 187 184 203 183 178 155 176 176 170 179 185 198 188 194 200 194 191 203 213 218 222 230 242 249
345 344 340 343 352 359 2 358 3 4 2 357 348 337 327 316 302 290 278 268 266 251 230 233 229 223 224 223 219 218 216 217 214 213 216 216 218 218 212 211 213 211 210 208 199 189 199 203 204 182 169 192 196 189 189 187 187 194 186 183 188 180 183 191 218 177 155 152 186 185 180 174 195 188 179 186 187 196 208 215 213 224 232 233 237
350 353 354 355 356 358 358 0 1 358 355 351 347 343 338 329 319 308 296 281 266 262 245 232 237 231 226 224 222 219 217 214 215 217 217 219 221 221 218 216 217 215 213 210 205 195 198 201 198 168 169 187 192 189 185 189 191 187 188 182 189 181 167 187 192 190 170 167 158 177 170 176 178 182 182 184 193 199 203 206 211 219 230 235 236
346 347 349 352 354 355 353 353 353 352 348 343 341 340 339 337 331 321 309 297 283 267 260 247 230 236 232 227 226 227 223 220 220 220 218 217 219 221 222 220 220 217 213 214 207 192 199 198 186 167 173 188 193 185 177 184 179 187 189 184 185 170 174 182 186 185 179 164 152 155 178 173 172 187 187 191 192 188 193 200 207 217 226 236 228
338 342 343 346 346 349 348 347 342 339 341 338 336 337 337 337 334 329 322 310 301 289 267 250 242 237 239 232 230 229 227 223 223 221 221 219 219 221 222 224 224 222 217 212 195 194 206 205 198 193 197 200 193 184 177 175 180 184 180 177 167 171 180 185 186 184 185 169 166 169 163 181 179 180 183 188 201 200 193 190 211 206 213 225 232
336 338 339 339 345 343 339 332 333 331 328 330 332 335 334 333 335 331 327 323 313 298 288 277 258 243 241 238 233 230 229 229 226 223 220 219 217 220 222 225 227 226 221 218 216 214 212 208 207 205 204 203 196 178 167 174 167 174 178 164 170 173 182 178 179 182 181 184 182 174 179 170 177 184 155 172 188 205 203 201 208 201 205 215 228
325 330 332 336 337 338 333 332 326 328 328 332 335 336 334 332 330 329 329 324 316 306 290 278 275 264 250 245 244 235 231 228 225 222 221 222 220 221 222 225 226 229 226 224 222 219 216 212 211 211 210 213 213 210 206 200 188 187 174 164 172 175 175 173 178 179 185 184 186 175 175 184 183 171 184 191 199 196 174 185 218 227 238 253 245
314 314 316 316 317 321 326 326 329 328 329 330 331 331 331 329 324 325 325 326 322 314 311 298 283 275 268 256 244 235 236 239 233 227 225 225 221 220 221 224 225 227 226 223 223 221 219 216 212 215 216 216 215 213 209 209 211 200 159 161 175 163 166 164 172 181 180 184 190 174 181 195 187 188 189 193 183 165 164 181 205 220 236 267 272
319 315 314 313 314 317 321 322 323 325 325 326 326 327 328 328 326 322 325 325 322 319 310 302 287 277 273 268 261 255 252 248 241 233 229 226 227 225 219 223 225 226 226 221 222 220 220 219 217 213 216 217 217 213 201 202 209 217 215 195 176 164 159 162 175 171 179 189 177 181 193 186 190 184 186 174 174 178 175 181 191 200 217 239 275
320 320 319 321 318 317 319 322 322 320 322 321 321 319 318 319 320 321 322 324 322 319 310 301 296 285 275 271 266 264 261 255 249 238 229 226 225 228 223 225 223 226 228 227 227 224 221 220 215 200 200 206 194 199 207 204 202 205 208 216 218 209 189 174 163 172 183 172 179 197 176 189 180 174 176 172 172 171 175 177 187 192 201 215 235
316 317 319 320 321 317 316 317 316 316 318 320 318 314 314 314 314 319 319 318 317 313 311 308 300 292 284 277 272 266 268 263 258 243 230 227 225 225 233 225 226 231 230 227 227 225 222 218 213 199 204 205 201 197 188 196 201 199 201 205 215 215 219 229 263 281 169 169 179 179 190 174 166 183 176 175 164 161 167 175 183 191 205 217 225
307 308 309 311 312 313 311 314 313 313 312 309 312 313 315 312 311 311 308 307 308 307 305 298 294 292 286 282 276 272 264 270 258 244 236 227 227 223 233 234 232 232 230 226 226 226 223 218 209 201 189 191 197 196 186 177 179 191 195 197 200 207 216 219 217 232 238 199 177 180 180 161 173 166 169 165 168 168 169 174 173 184 200 219 231
299 301 303 305 307 307 307 307 308 309 310 307 304 302 303 304 306 307 310 309 305 302 305 304 296 288 284 279 280 275 271 265 260 249 239 231 229 226 232 235 235 230 227 225 223 223 223 223 213 203 187 186 187 182 173 170 188 197 202 203 197 199 200 204 207 204 198 205 210 185 151 159 161 160 158 168 166 160 162 159 163 172 199 237 252
284 289 290 293 297 301 302 302 302 307 307 305 300 298 296 296 298 302 303 303 299 299 291 281 282 287 280 275 274 272 269 262 258 259 249 239 232 227 233 233 236 238 232 218 220 218 214 212 206 198 185 191 185 184 184 183 188 196 200 202 194 198 200 201 197 193 193 193 189 167 157 162 163 160 161 160 154 148 143 141 140 158 162 199 233
282 282 280 283 286 288 290 292 295 298 300 299 296 294 296 294 293 291 289 289 294 296 296 292 286 285 279 276 270 268 268 259 253 255 256 250 241 235 233 234 232 236 237 223 203 207 205 200 203 200 191 197 186 190 189 182 193 196 199 198 191 191 200 195 192 187 183 180 168 152 159 169 170 164 164 162 159 157 154 155 164 161 174 213 236
289 284 279 281 279 279 281 285 287 290 293 293 294 295 295 293 290 288 282 284 284 280 283 287 283 279 270 269 267 270 266 255 257 259 256 253 244 239 235 235 230 231 237 225 207 214 218 219 213 208 201 198 184 192 193 186 196 197 197 195 197 196 196 183 172 181 177 177 171 172 175 175 174 171 169 170 167 169 173 182 171 170 188 206 223
285 283 285 284 281 277 276 278 281 287 289 290 291 292 292 291 289 286 282 281 277 277 276 279 279 277 271 265 271 262 264 264 255 253 254 252 247 241 241 237 238 236 236 234 208 219 219 221 216 215 204 187 188 196 197 192 199 198 198 196 197 198 195 176 171 169 170 172 178 179 180 178 177 179 183 183 181 179 184 178 180 185 187 193 207
283 286 288 287 283 280 275 279 279 282 284 287 289 288 288 288 285 284 283 283 284 283 279 276 274 276 274 279 275 254 264 266 259 254 251 248 247 244 240 242 243 241 232 229 218 215 218 209 210 213 209 198 197 200 201 197 196 199 196 197 194 203 179 172 173 167 169 170 173 176 179 180 182 187 188 187 190 176 169 184 177 170 184 183 194
298 296 292 290 286 283 283 278 280 279 279 281 283 284 284 285 286 285 287 287 284 282 282 279 272 268 267 261 268 270 266 266 263 250 251 248 244 242 242 240 247 247 246 229 215 213 205 209 205 206 209 204 203 202 203 203 198 196 199 206 206 180 158 172 182 169 166 166 169 172 176 181 172 146 145 151 168 161 176 176 177 186 190 189 193
303 299 295 291 289 288 286 285 281 280 279 279 280 279 278 279 282 284 286 287 288 285 279 272 269 267 269 255 257 259 256 246 264 263 256 252 246 240 240 243 240 246 245 245 224 218 206 199 202 190 200 206 206 201 204 205 203 196 203 202 188 181 177 179 171 171 174 171 170 174 171 144 148 152 151 158 156 161 164 171 182 198 209 203 195
303 300 296 294 291 288 287 285 284 282 279 278 278 277 279 280 280 282 281 280 279 280 276 270 262 262 262 261 253 243 248 244 246 253 253 252 250 246 242 243 244 241 241 244 235 221 199 199 199 192 195 205 206 204 205 206 205 201 199 195 188 183 168 150 169 169 166 170 169 167 165 164 165 170 164 151 156 154 163 173 190 196 212 212 208
310 304 299 295 294 291 289 288 284 282 280 280 278 275 274 278 280 277 279 279 279 277 275 273 267 263 261 259 252 244 235 244 242 243 245 245 247 246 246 244 244 242 240 241 235 212 207 198 187 192 198 205 207 206 207 206 207 206 195 190 184 179 162 162 173 175 173 166 172 171 159 155 147 152 161 155 152 158 162 174 186 198 205 210 211
311 304 301 299 297 296 294 291 289 287 286 284 281 277 276 274 274 271 272 273 271 271 272 272 266 263 264 263 262 256 246 229 234 241 241 243 244 246 247 247 246 246 245 242 234 219 199 189 188 199 204 207 207 207 208 209 207 205 200 192 186 172 176 169 167 163 174 182 178 165 166 174 169 158 144 142 141 146 159 167 178 189 195 205 219
305 302 299 295 294 295 293 290 287 284 283 281 278 275 275 274 272 271 268 267 267 267 269 268 266 260 259 260 260 255 248 241 237 237 233 242 243 245 245 246 247 246 247 250 239 231 206 201 204 204 206 206 208 207 209 210 211 209 200 193 187 180 164 167 166 173 177 176 170 173 160 141 140 140 135 137 148 166 162 165 168 176 182 190 212
297 294 292 294 295 292 290 288 288 286 282 279 274 271 269 267 266 266 262 260 260 262 263 264 264 261 258 256 256 255 246 242 238 228 226 233 231 234 238 245 247 250 252 250 240 225 213 201 199 201 201 206 206 205 205 205 207 208 197 192 188 166 169 168 168 163 170 174 181 160 129 124 118 118 141 146 151 164 163 162 168 178 176 182 187
293 292 292 294 292 291 289 285 285 283 281 277 274 271 267 265 264 261 260 259 261 262 262 262 262 262 262 261 260 260 256 244 231 226 220 219 225 223 223 228 229 223 237 239 232 219 212 200 198 199 203 205 207 203 202 202 205 198 185 193 174 150 165 163 165 155 144 134 124 118 110 129 132 141 137 145 154 157 161 160 172 171 172 171 175
292 291 292 292 289 290 288 286 285 285 284 282 275 272 271 270 268 268 262 259 260 265 267 266 265 267 268 268 268 266 261 254 239 230 228 202 209 214 215 220 216 219 225 230 216 195 196 196 194 197 196 199 202 203 203 199 202 191 184 184 150 157 160 177 181 168 158 154 155 145 140 130 133 133 135 136 154 159 168 163 178 165 175 179 190
293 292 292 290 290 289 288 287 287 286 284 283 282 278 272 270 271 270 273 268 265 263 262 263 264 267 269 268 265 264 264 264 272 261 234 227 225 219 220 216 214 217 220 228 204 193 191 196 194 195 196 199 202 203 200 196 192 185 189 170 160 163 169 172 176 172 167 159 153 149 140 139 139 145 148 150 152 158 173 170 175 176 179 184 188
291 291 291 288 288 289 288 286 284 283 281 280 279 279 280 271 264 265 266 269 269 268 267 266 266 266 266 270 268 267 269 269 267 266 262 245 228 226 227 226 224 226 221 220 200 198 191 192 194 195 195 196 199 202 191 188 184 173 178 174 172 167 165 166 170 157 158 160 160 147 137 146 151 149 153 155 153 155 165 179 176 184 190 187 187
290 290 289 289 289 286 285 284 283 281 280 278 277 279 279 282 279 266 266 267 266 266 265 264 263 262 262 261 263 267 266 266 265 262 258 254 250 240 233 233 229 224 224 214 201 200 196 194 189 191 193 194 201 191 188 191 182 174 170 163 169 170 164 170 163 159 161 161 152 148 149 148 147 143 141 143 146 153 159 174 181 190 192 192 199
286 287 288 287 285 285 284 283 282 280 281 280 279 277 277 279 280 286 274 268 269 267 266 266 267 266 264 262 260 258 259 260 262 260 255 250 249 248 247 243 236 228 222 218 203 203 192 194 191 191 188 200 192 171 171 179 170 169 171 170 167 169 170 151 145 160 157 148 130 142 140 138 129 130 137 143 149 157 164 171 181 183 185 188 203
283 285 286 284 285 284 281 280 280 279 278 277 277 278 276 276 278 280 285 285 277 270 267 266 266 264 265 263 262 260 260 261 261 258 254 251 247 243 240 240 237 232 223 216 207 204 197 193 193 187 194 192 188 187 183 186 179 173 165 164 158 154 150 147 156 160 144 151 141 134 132 134 134 137 144 145 151 153 162 172 178 178 189 195 195
283 282 281 281 280 280 280 278 278 277 276 276 276 276 276 277 278 278 277 279 280 282 281 277 276 281 280 271 264 262 261 259 256 257 257 249 243 237 234 233 231 229 225 219 207 203 193 187 191 194 190 185 190 187 187 171 179 170 167 161 158 154 150 148 143 149 136 135 131 139 138 138 143 140 142 147 156 162 170 173 178 188 188 193 197
285 283 283 282 280 278 278 278 276 276 276 276 275 274 275 276 276 276 277 276 276 277 277 276 275 272 273 274 276 278 274 267 261 255 252 247 242 233 222 216 215 219 218 219 205 200 189 187 189 185 187 194 188 186 186 179 154 151 160 157 156 158 153 144 145 144 147 134 131 131 129 126 134 135 132 136 153 160 164 168 176 187 197 201 204
285 283 282 281 279 278 278 276 275 274 274 274 271 272 274 274 272 272 272 274 275 276 277 280 281 280 277 273 266 266 268 269 261 254 252 249 244 236 206 210 213 212 216 221 213 189 192 194 198 195 187 187 186 180 176 175 162 152 156 146 146 153 144 149 147 141 140 133 136 136 138 140 139 141 143 148 160 167 169 178 189 197 202 206 210
277 277 276 276 277 279 277 276 276 276 276 277 276 273 269 266 268 269 270 269 274 278 281 280 278 282 285 282 270 267 267 267 260 252 248 244 244 231 203 201 202 212 216 220 224 198 188 176 184 190 186 178 176 168 166 163 158 146 154 149 154 162 156 153 148 128 120 119 127 133 136 143 142 147 146 150 158 163 177 184 189 199 208 213 217
285 281 281 281 281 283 282 281 279 277 276 276 275 275 276 280 279 279 277 277 278 274 272 273 277 282 283 285 284 275 267 259 244 242 242 243 239 224 201 202 201 200 215 221 215 200 180 188 194 184 178 171 168 165 160 161 162 146 137 146 159 153 148 126 134 134 134 132 130 142 142 143 142 144 148 150 159 166 176 183 195 199 207 211 216
295 294 289 288 287 284 283 279 278 276 275 274 274 273 272 272 273 273 271 271 272 275 276 274 272 270 268 270 280 283 274 268 267 267 263 251 241 216 192 197 192 192 206 213 208 194 191 190 178 174 171 168 161 157 153 153 157 157 148 145 148 151 143 139 139 142 139 139 135 137 138 142 141 142 150 159 157 163 171 184 193 205 211 222 233
298 293 290 288 283 282 279 278 275 272 272 270 270 274 274 270 270 271 271 270 271 275 277 278 278 274 269 270 271 273 279 270 250 242 245 255 254 216 186 180 175 184 203 208 201 190 185 177 165 165 162 157 152 146 148 153 152 153 154 160 151 141 138 136 140 132 131 127 131 135 135 135 144 155 160 165 166 164 177 183 194 205 216 227 236
295 292 290 289 286 281 275 273 272 271 268 268 269 270 273 278 280 279 282 285 288 288 286 282 277 280 284 286 286 284 283 279 271 257 257 259 253 227 199 177 170 181 198 204 188 170 159 151 154 154 153 148 142 142 143 152 154 146 161 150 139 136 136 143 136 126 127 131 129 132 134 138 143 147 154 159 165 169 177 187 199 207 221 228 231
293 288 288 287 288 281 276 272 271 270 268 267 265 269 271 274 278 282 281 278 278 280 286 289 293 296 292 288 290 291 287 283 280 266 252 253 253 231 214 205 181 168 148 133 121 135 137 141 141 147 146 147 154 160 158 156 157 159 160 160 144 137 132 126 128 126 126 126 131 129 132 146 150 158 162 161 163 168 178 187 201 216 221 230 235
304 306 303 302 300 294 282 274 274 271 269 269 271 274 276 278 278 277 277 278 278 278 278 279 283 285 288 293 290 285 280 272 268 276 267 245 239 187 70 78 96 102 104 96 104 120 130 132 130 133 143 158 165 162 157 156 152 160 159 154 149 134 131 134 140 147 144 134 132 134 142 145 148 158 156 163 165 168 184 193 205 217 224 228 234
311 308 307 307 307 306 303 293 282 278 278 278 278 277 276 277 276 277 277 277 279 278 276 274 275 275 278 281 280 284 291 289 284 282 284 85 90 96 97 97 98 112 107 113 122 125 128 133 137 143 151 152 148 147 148 153 160 161 160 156 148 145 150 152 148 141 130 126 130 134 140 149 152 149 154 160 167 177 190 201 205 215 226 231 240
311 311 311 314 316 316 316 314 303 289 283 281 278 278 276 274 271 273 272 273 274 273 274 271 271 270 272 271 271 277 288 314 25 39 73 81 90 98 97 101 106 109 108 122 136 132 134 142 147 143 139 128 139 134 133 137 133 137 138 97 90 107 109 108 110 120 129 132 132 134 135 134 137 141 146 155 172 190 198 206 214 224 232 241 241
316 316 319 321 323 323 325 320 312 304 295 289 281 280 277 275 272 272 272 271 271 272 274 273 276 285 297 311 338 19 27 38 47 55 71 84 89 99 103 102 104 107 111 119 123 126 133 133 122 127 136 130 129 125 112 109 104 99 89 104 109 108 113 121 123 124 123 113 115 121 128 128 134 134 157 171 182 193 203 213 212 226 231 238 242
323 324 325 326 327 330 332 336 332 323 312 301 294 290 285 285 282 281 281 280 279 281 283 289 305 336 357 10 18 29 46 55 56 58 67 76 78 77 88 98 106 103 98 102 99 115 111 99 118 130 128 129 117 107 106 105 100 100 93 90 92 109 113 116 117 110 110 109 109 114 119 124 127 139 157 175 194 203 204 221 224 230 232 231 240
330 330 331 332 334 334 336 336 339 341 342 339 326 314 311 305 304 306 308 312 321 339 348 349 348 357 18 27 31 43 47 49 48 47 59 67 72 81 75 82 90 86 76 83 82 93 98 115 120 104 107 102 104 107 102 100 103 100 99 101 118 119 118 115 111 112 112 111 112 115 112 114 127 145 172 190 205 214 220 230 237 236 239 246 247
335 335 335 335 337 337 337 338 341 341 344 345 346 347 348 351 351 351 345 348 350 354 359 3 3 8 14 22 29 32 44 57 61 56 59 64 68 76 83 76 73 94 106 103 103 103 98 100 110 93 95 99 99 97 100 97 103 105 101 117 121 116 115 115 117 123 121 118 123 130 132 136 143 169 189 205 215 218 226 231 231 236 243 251 261
336 338 339 340 339 338 342 344 346 349 349 350 353 353 351 353 354 352 354 357 360 1 2 6 10 8 14 16 26 31 36 39 47 52 57 65 73 77 78 84 84 91 97 95 98 85 92 94 94 94 96 96 95 97 97 97 92 103 115 120 119 121 122 123 127 136 130 124 127 135 147 156 173 184 203 210 221 220 226 232 235 236 257 267 271